Location: Igon
(43.1667°N, 0.2333°W)
Time: 13:13:02
(UTC+00:00)

CENTAUR R/B - Visible Passes

Search period start: 12 April 2021 00:00
Search period end: 22 April 2021 00:00
Orbit: 742 x 1446 km, 63.4° (Epoch: 31 March)

Date Brightness Start Highest point End Pass type
(mag) Time Alt. Az. Time Alt. Az. Time Alt. Az.
12 Apr 3.3 19:51:59 10° NW 20:00:14 82° NE 20:07:25 18° SE visible
12 Apr 4.6 21:43:41 10° NW 21:50:28 28° WSW 21:54:38 19° SSW visible
13 Apr 3.5 19:03:43 10° NNW 19:11:43 58° NE 19:20:27 10° SE visible
13 Apr 4.1 20:54:43 10° NW 21:02:28 43° WSW 21:08:29 19° S visible
14 Apr 3.6 20:06:07 10° NW 20:14:18 65° WSW 20:22:25 13° SSE visible
14 Apr 5.3 21:59:45 10° WNW 22:03:53 14° WSW 22:08:06 10° SW visible
15 Apr 3.3 19:17:43 10° NW 19:25:59 88° NE 19:34:56 10° SE visible
15 Apr 4.9 21:09:39 10° WNW 21:16:06 25° WSW 21:22:48 10° SSW visible
16 Apr 4.4 20:20:34 10° NW 20:28:08 39° WSW 20:36:08 10° S visible
17 Apr 3.8 19:31:54 10° NW 19:40:01 59° WSW 19:48:41 10° SSE visible
17 Apr 5.5 21:26:19 10° W 21:29:28 12° WSW 21:32:40 10° WSW visible
18 Apr 5.2 20:35:40 10° WNW 20:41:43 22° WSW 20:48:00 10° SSW visible
19 Apr 4.7 19:46:25 10° NW 19:53:48 35° WSW 20:01:34 10° S visible
20 Apr 5.8 20:53:34 10° W 20:55:02 10° W 20:56:31 10° WSW visible
21 Apr 5.4 20:01:44 10° WNW 20:07:20 20° WSW 20:13:07 10° SSW visible
